Home   Weather   Bamberg   Past weeks

Flag for Germany Past Weather in Bamberg, Bavaria, Germany — Yesterday and Last 2 Weeks

Now
30 °F

Ice fog.


Feels Like: 23 °F
Forecast: 18 / 31 °F
Wind: 7 mph from Southeast

Location: Nuernberg

Current Time: Dec 7, 2016 at 7:37:17 pm

Latest Report: Dec 7, 2016 at 7:20 pm


Visibility: 3 mi

Pressure: 30.57 "Hg

Humidity: 93%

Dew Point: 28 °F

Location of BambergLocation

Past Weather in Bamberg — Graph

°F

Bamberg Temperature Yesterday

Maximum temperature yesterday: 30 °F (at 10:50 am)
Minimum temperature yesterday: 27 °F (at 10:50 pm)
Average temperature yesterday: 29 °F

High & Low Weather Summary for the Past Weeks

 TemperatureHumidityPressure
High55 °F (Nov 23, 12:20 pm)100% (Nov 22, 7:50 pm)30.57 "Hg (Nov 22, 7:50 pm)
Low16 °F (Nov 30, 4:20 am)51% (Nov 29, 3:50 pm)29.95 "Hg (Nov 22, 6:20 pm)
Average34 °F89%30.25 "Hg
* Reported Nov 22 6:20 pm — Dec 7 6:20 pm, Bamberg, Weather by CustomWeather, © 2016

Note: Actual official high and low records may vary slightly from our data, if they occured in-between our weather recording intervals... More about our weather records

Advertising

Bamberg Weather History for the Previous 24 Hours

Scroll right to see more
 ConditionsComfort  
Time TempWeatherWind HumidityBarometerVisibility
6:20 pm
Wed, Dec 7
30 °FIce fog.7 mph93%30.57 "Hg3 mi
5:50 pm30 °FIce fog.7 mph93%30.57 "Hg3 mi
5:20 pm30 °FIce fog.6 mph93%30.57 "Hg3 mi
4:50 pm30 °FIce fog.6 mph93%30.54 "Hg3 mi
4:20 pm30 °FIce fog.6 mph93%30.54 "Hg3 mi
3:20 pm30 °FIce fog.8 mph93%30.54 "Hg3 mi
2:50 pm30 °FIce fog.7 mph93%30.54 "Hg3 mi
2:20 pm30 °FIce fog.6 mph93%30.54 "Hg3 mi
1:50 pm30 °FIce fog.7 mph93%30.54 "Hg3 mi
1:20 pm30 °FIce fog.5 mph93%30.57 "Hg3 mi
12:50 pm28 °FIce fog.5 mph100%30.57 "Hg3 mi
12:20 pm28 °FIce fog.6 mph100%30.57 "Hg3 mi
11:50 am28 °FIce fog.7 mph93%30.57 "Hg3 mi
11:20 am28 °FIce fog.7 mph93%30.57 "Hg3 mi
10:50 am28 °FIce fog.7 mph93%30.57 "Hg3 mi
10:20 am28 °FIce fog.8 mph93%30.57 "Hg3 mi
9:50 am28 °FIce fog.6 mph93%30.57 "Hg3 mi
9:20 am27 °FIce fog.6 mph100%30.57 "Hg3 mi
8:50 am27 °FIce fog.3 mph100%30.57 "Hg2 mi
8:20 am27 °FIce fog.6 mph100%30.57 "Hg2 mi
7:50 am27 °FIce fog.7 mph100%30.57 "Hg2 mi
7:20 am27 °FIce fog.7 mph100%30.57 "Hg2 mi
6:50 am27 °FIce fog.5 mph93%30.57 "Hg2 mi
6:20 am27 °FIce fog.6 mph93%30.54 "Hg2 mi
5:50 am27 °FIce fog.7 mph93%30.57 "Hg1 mi
5:20 am27 °FIce fog.7 mph93%30.57 "Hg1 mi
4:50 am27 °FIce fog.6 mph100%30.57 "Hg1 mi
4:20 am27 °FIce fog.5 mph100%30.57 "Hg1 mi
3:50 am27 °FIce fog.7 mph100%30.54 "Hg1 mi
3:20 am27 °FIce fog.5 mph100%30.57 "Hg1 mi
2:50 am27 °FIce fog.6 mph100%30.57 "Hg1 mi
2:20 am27 °FIce fog.6 mph100%30.57 "Hg1 mi
1:50 am27 °FIce fog.6 mph100%30.54 "Hg1 mi
1:20 am27 °FIce fog.5 mph100%30.54 "Hg1 mi
12:50 am27 °FIce fog.6 mph100%30.54 "Hg1 mi
12:20 am27 °FIce fog.6 mph100%30.54 "Hg2 mi
11:50 pm
Tue, Dec 6
27 °FIce fog.6 mph100%30.54 "Hg2 mi
11:20 pm27 °FIce fog.7 mph100%30.54 "Hg2 mi
10:50 pm27 °FIce fog.3 mph100%30.54 "Hg2 mi
10:20 pm28 °FIce fog.5 mph93%30.54 "Hg2 mi
9:50 pm28 °FIce fog.5 mph93%30.54 "Hg2 mi
9:20 pm28 °FIce fog.3 mph93%30.54 "Hg2 mi
8:50 pm28 °FIce fog.3 mph93%30.54 "Hg2 mi
8:20 pm28 °FIce fog.5 mph93%30.54 "Hg2 mi
7:50 pm28 °FIce fog.3 mph100%30.54 "Hg3 mi
Weather by CustomWeather, © 2016

See weather overviewHow to use our weather pages